<?xml version="1.0" encoding="utf-8"?>
<gpx xmlns:xsi="http://www.w3.org/2001/XMLSchema-instance" xmlns:xsd="http://www.w3.org/2001/XMLSchema" version="1.1" creator="Shapelink.com" xmlns="http://www.topografix.com/GPX/1/1" xmlns:gpxtpx="http://www.garmin.com/xmlschemas/TrackPointExtension/v1">
  <metadata>
    <name>Caminar 4.33 km, 2019-08-16</name>
    <desc></desc>
    <author><name>Urban Kalla</name></author> 
    <time>1970-01-01T01:00:00Z</time>
  </metadata>
  <trk>
    <name>Caminar 4.33 km, 2019-08-16</name>
    <trkseg>
      <trkpt lat="67.85595" lon="20.226131">
        <ele>576.571</ele>
        <time>1970-01-01T01:00:00Z</time>
      </trkpt>
      <trkpt lat="67.855949" lon="20.226352">
        <ele>576.625</ele>
        <time>1970-01-01T01:00:00Z</time>
      </trkpt>
      <trkpt lat="67.856029" lon="20.226284">
        <ele>576.667</ele>
        <time>1970-01-01T01:00:00Z</time>
      </trkpt>
      <trkpt lat="67.856099" lon="20.226172">
        <ele>576.7</ele>
        <time>1970-01-01T01:00:00Z</time>
      </trkpt>
      <trkpt lat="67.856183" lon="20.226281">
        <ele>576.818</ele>
        <time>1970-01-01T01:00:00Z</time>
      </trkpt>
      <trkpt lat="67.856275" lon="20.226323">
        <ele>577.091</ele>
        <time>1970-01-01T01:00:00Z</time>
      </trkpt>
      <trkpt lat="67.856361" lon="20.226325">
        <ele>577.364</ele>
        <time>1970-01-01T01:00:00Z</time>
      </trkpt>
      <trkpt lat="67.856445" lon="20.226274">
        <ele>577.636</ele>
        <time>1970-01-01T01:00:00Z</time>
      </trkpt>
      <trkpt lat="67.856529" lon="20.226243">
        <ele>577.909</ele>
        <time>1970-01-01T01:00:00Z</time>
      </trkpt>
      <trkpt lat="67.856594" lon="20.226408">
        <ele>578.364</ele>
        <time>1970-01-01T01:00:00Z</time>
      </trkpt>
      <trkpt lat="67.856651" lon="20.226607">
        <ele>578.727</ele>
        <time>1970-01-01T01:00:00Z</time>
      </trkpt>
      <trkpt lat="67.856737" lon="20.226677">
        <ele>579.091</ele>
        <time>1970-01-01T01:00:00Z</time>
      </trkpt>
      <trkpt lat="67.856823" lon="20.226736">
        <ele>579.3</ele>
        <time>1970-01-01T01:00:00Z</time>
      </trkpt>
      <trkpt lat="67.856902" lon="20.226796">
        <ele>579.556</ele>
        <time>1970-01-01T01:00:00Z</time>
      </trkpt>
      <trkpt lat="67.856988" lon="20.226833">
        <ele>579.875</ele>
        <time>1970-01-01T01:00:00Z</time>
      </trkpt>
      <trkpt lat="67.857072" lon="20.226818">
        <ele>580.143</ele>
        <time>1970-01-01T01:00:00Z</time>
      </trkpt>
      <trkpt lat="67.857085" lon="20.226818">
        <ele>580.333</ele>
        <time>1970-01-01T01:00:00Z</time>
      </trkpt>
      <trkpt lat="67.857153" lon="20.226848">
        <ele>582.143</ele>
        <time>1970-01-01T01:00:00Z</time>
      </trkpt>
      <trkpt lat="67.857251" lon="20.22689">
        <ele>582.375</ele>
        <time>1970-01-01T01:00:00Z</time>
      </trkpt>
      <trkpt lat="67.857332" lon="20.226904">
        <ele>582.556</ele>
        <time>1970-01-01T01:00:00Z</time>
      </trkpt>
      <trkpt lat="67.857417" lon="20.226921">
        <ele>582.8</ele>
        <time>1970-01-01T01:00:00Z</time>
      </trkpt>
      <trkpt lat="67.857511" lon="20.226939">
        <ele>583</ele>
        <time>1970-01-01T01:00:00Z</time>
      </trkpt>
      <trkpt lat="67.857603" lon="20.226986">
        <ele>583.455</ele>
        <time>1970-01-01T01:00:00Z</time>
      </trkpt>
      <trkpt lat="67.857689" lon="20.227043">
        <ele>583.909</ele>
        <time>1970-01-01T01:00:00Z</time>
      </trkpt>
      <trkpt lat="67.857768" lon="20.227123">
        <ele>584.273</ele>
        <time>1970-01-01T01:00:00Z</time>
      </trkpt>
      <trkpt lat="67.857843" lon="20.227208">
        <ele>584.727</ele>
        <time>1970-01-01T01:00:00Z</time>
      </trkpt>
      <trkpt lat="67.857929" lon="20.227298">
        <ele>585.182</ele>
        <time>1970-01-01T01:00:00Z</time>
      </trkpt>
      <trkpt lat="67.858022" lon="20.22731">
        <ele>585.727</ele>
        <time>1970-01-01T01:00:00Z</time>
      </trkpt>
      <trkpt lat="67.858111" lon="20.227355">
        <ele>586.364</ele>
        <time>1970-01-01T01:00:00Z</time>
      </trkpt>
      <trkpt lat="67.858203" lon="20.22739">
        <ele>586.909</ele>
        <time>1970-01-01T01:00:00Z</time>
      </trkpt>
      <trkpt lat="67.858289" lon="20.227484">
        <ele>587.545</ele>
        <time>1970-01-01T01:00:00Z</time>
      </trkpt>
      <trkpt lat="67.858351" lon="20.227625">
        <ele>588.091</ele>
        <time>1970-01-01T01:00:00Z</time>
      </trkpt>
      <trkpt lat="67.858402" lon="20.22782">
        <ele>588.727</ele>
        <time>1970-01-01T01:00:00Z</time>
      </trkpt>
      <trkpt lat="67.85847" lon="20.227965">
        <ele>589.273</ele>
        <time>1970-01-01T01:00:00Z</time>
      </trkpt>
      <trkpt lat="67.85854" lon="20.228147">
        <ele>589.909</ele>
        <time>1970-01-01T01:00:00Z</time>
      </trkpt>
      <trkpt lat="67.858597" lon="20.228337">
        <ele>590.545</ele>
        <time>1970-01-01T01:00:00Z</time>
      </trkpt>
      <trkpt lat="67.858635" lon="20.228556">
        <ele>591.091</ele>
        <time>1970-01-01T01:00:00Z</time>
      </trkpt>
      <trkpt lat="67.858698" lon="20.228717">
        <ele>591.636</ele>
        <time>1970-01-01T01:00:00Z</time>
      </trkpt>
      <trkpt lat="67.858772" lon="20.22888">
        <ele>592.091</ele>
        <time>1970-01-01T01:00:00Z</time>
      </trkpt>
      <trkpt lat="67.858816" lon="20.229088">
        <ele>592.455</ele>
        <time>1970-01-01T01:00:00Z</time>
      </trkpt>
      <trkpt lat="67.858872" lon="20.2293">
        <ele>592.818</ele>
        <time>1970-01-01T01:00:00Z</time>
      </trkpt>
      <trkpt lat="67.858945" lon="20.229426">
        <ele>593.091</ele>
        <time>1970-01-01T01:00:00Z</time>
      </trkpt>
      <trkpt lat="67.859012" lon="20.229586">
        <ele>593.364</ele>
        <time>1970-01-01T01:00:00Z</time>
      </trkpt>
      <trkpt lat="67.859047" lon="20.229799">
        <ele>593.455</ele>
        <time>1970-01-01T01:00:00Z</time>
      </trkpt>
      <trkpt lat="67.859074" lon="20.230006">
        <ele>593.545</ele>
        <time>1970-01-01T01:00:00Z</time>
      </trkpt>
      <trkpt lat="67.85914" lon="20.230169">
        <ele>593.545</ele>
        <time>1970-01-01T01:00:00Z</time>
      </trkpt>
      <trkpt lat="67.859212" lon="20.230271">
        <ele>593.455</ele>
        <time>1970-01-01T01:00:00Z</time>
      </trkpt>
      <trkpt lat="67.859222" lon="20.230502">
        <ele>593.364</ele>
        <time>1970-01-01T01:00:00Z</time>
      </trkpt>
      <trkpt lat="67.859257" lon="20.230722">
        <ele>593.182</ele>
        <time>1970-01-01T01:00:00Z</time>
      </trkpt>
      <trkpt lat="67.859294" lon="20.230964">
        <ele>592.909</ele>
        <time>1970-01-01T01:00:00Z</time>
      </trkpt>
      <trkpt lat="67.859351" lon="20.231123">
        <ele>592.636</ele>
        <time>1970-01-01T01:00:00Z</time>
      </trkpt>
      <trkpt lat="67.859402" lon="20.231323">
        <ele>592.364</ele>
        <time>1970-01-01T01:00:00Z</time>
      </trkpt>
      <trkpt lat="67.859449" lon="20.231534">
        <ele>592.091</ele>
        <time>1970-01-01T01:00:00Z</time>
      </trkpt>
      <trkpt lat="67.859487" lon="20.231735">
        <ele>591.727</ele>
        <time>1970-01-01T01:00:00Z</time>
      </trkpt>
      <trkpt lat="67.859524" lon="20.231931">
        <ele>591.455</ele>
        <time>1970-01-01T01:00:00Z</time>
      </trkpt>
      <trkpt lat="67.859551" lon="20.232152">
        <ele>591.182</ele>
        <time>1970-01-01T01:00:00Z</time>
      </trkpt>
      <trkpt lat="67.859627" lon="20.232283">
        <ele>590.818</ele>
        <time>1970-01-01T01:00:00Z</time>
      </trkpt>
      <trkpt lat="67.859646" lon="20.232498">
        <ele>590.545</ele>
        <time>1970-01-01T01:00:00Z</time>
      </trkpt>
      <trkpt lat="67.859659" lon="20.232725">
        <ele>590.182</ele>
        <time>1970-01-01T01:00:00Z</time>
      </trkpt>
      <trkpt lat="67.859682" lon="20.232956">
        <ele>589.727</ele>
        <time>1970-01-01T01:00:00Z</time>
      </trkpt>
      <trkpt lat="67.859736" lon="20.233147">
        <ele>589.273</ele>
        <time>1970-01-01T01:00:00Z</time>
      </trkpt>
      <trkpt lat="67.859823" lon="20.23323">
        <ele>588.818</ele>
        <time>1970-01-01T01:00:00Z</time>
      </trkpt>
      <trkpt lat="67.859905" lon="20.233271">
        <ele>588.364</ele>
        <time>1970-01-01T01:00:00Z</time>
      </trkpt>
      <trkpt lat="67.859973" lon="20.233438">
        <ele>587.818</ele>
        <time>1970-01-01T01:00:00Z</time>
      </trkpt>
      <trkpt lat="67.860036" lon="20.233616">
        <ele>587.364</ele>
        <time>1970-01-01T01:00:00Z</time>
      </trkpt>
      <trkpt lat="67.860105" lon="20.233802">
        <ele>586.818</ele>
        <time>1970-01-01T01:00:00Z</time>
      </trkpt>
      <trkpt lat="67.860151" lon="20.234003">
        <ele>586.273</ele>
        <time>1970-01-01T01:00:00Z</time>
      </trkpt>
      <trkpt lat="67.860178" lon="20.23421">
        <ele>585.818</ele>
        <time>1970-01-01T01:00:00Z</time>
      </trkpt>
      <trkpt lat="67.860217" lon="20.234423">
        <ele>585.273</ele>
        <time>1970-01-01T01:00:00Z</time>
      </trkpt>
      <trkpt lat="67.860222" lon="20.234646">
        <ele>584.818</ele>
        <time>1970-01-01T01:00:00Z</time>
      </trkpt>
      <trkpt lat="67.860228" lon="20.234876">
        <ele>584.364</ele>
        <time>1970-01-01T01:00:00Z</time>
      </trkpt>
      <trkpt lat="67.860219" lon="20.235113">
        <ele>583.909</ele>
        <time>1970-01-01T01:00:00Z</time>
      </trkpt>
      <trkpt lat="67.860195" lon="20.235396">
        <ele>583.455</ele>
        <time>1970-01-01T01:00:00Z</time>
      </trkpt>
      <trkpt lat="67.860249" lon="20.235596">
        <ele>583</ele>
        <time>1970-01-01T01:00:00Z</time>
      </trkpt>
      <trkpt lat="67.860346" lon="20.235729">
        <ele>582.636</ele>
        <time>1970-01-01T01:00:00Z</time>
      </trkpt>
      <trkpt lat="67.860382" lon="20.235961">
        <ele>582.182</ele>
        <time>1970-01-01T01:00:00Z</time>
      </trkpt>
      <trkpt lat="67.860422" lon="20.236147">
        <ele>581.909</ele>
        <time>1970-01-01T01:00:00Z</time>
      </trkpt>
      <trkpt lat="67.860427" lon="20.236381">
        <ele>581.636</ele>
        <time>1970-01-01T01:00:00Z</time>
      </trkpt>
      <trkpt lat="67.860418" lon="20.236621">
        <ele>581.364</ele>
        <time>1970-01-01T01:00:00Z</time>
      </trkpt>
      <trkpt lat="67.860383" lon="20.236824">
        <ele>581.091</ele>
        <time>1970-01-01T01:00:00Z</time>
      </trkpt>
      <trkpt lat="67.860352" lon="20.237054">
        <ele>580.818</ele>
        <time>1970-01-01T01:00:00Z</time>
      </trkpt>
      <trkpt lat="67.860311" lon="20.237275">
        <ele>580.545</ele>
        <time>1970-01-01T01:00:00Z</time>
      </trkpt>
      <trkpt lat="67.860283" lon="20.237502">
        <ele>580.364</ele>
        <time>1970-01-01T01:00:00Z</time>
      </trkpt>
      <trkpt lat="67.860304" lon="20.237722">
        <ele>580.182</ele>
        <time>1970-01-01T01:00:00Z</time>
      </trkpt>
      <trkpt lat="67.860314" lon="20.237974">
        <ele>580</ele>
        <time>1970-01-01T01:00:00Z</time>
      </trkpt>
      <trkpt lat="67.860329" lon="20.238199">
        <ele>579.818</ele>
        <time>1970-01-01T01:00:00Z</time>
      </trkpt>
      <trkpt lat="67.860365" lon="20.238438">
        <ele>579.727</ele>
        <time>1970-01-01T01:00:00Z</time>
      </trkpt>
      <trkpt lat="67.860377" lon="20.238663">
        <ele>579.545</ele>
        <time>1970-01-01T01:00:00Z</time>
      </trkpt>
      <trkpt lat="67.860405" lon="20.238889">
        <ele>579.273</ele>
        <time>1970-01-01T01:00:00Z</time>
      </trkpt>
      <trkpt lat="67.860434" lon="20.239098">
        <ele>579.091</ele>
        <time>1970-01-01T01:00:00Z</time>
      </trkpt>
      <trkpt lat="67.860483" lon="20.2393">
        <ele>579</ele>
        <time>1970-01-01T01:00:00Z</time>
      </trkpt>
      <trkpt lat="67.860438" lon="20.239493">
        <ele>578.909</ele>
        <time>1970-01-01T01:00:00Z</time>
      </trkpt>
      <trkpt lat="67.860415" lon="20.239732">
        <ele>578.909</ele>
        <time>1970-01-01T01:00:00Z</time>
      </trkpt>
      <trkpt lat="67.860422" lon="20.239956">
        <ele>578.909</ele>
        <time>1970-01-01T01:00:00Z</time>
      </trkpt>
      <trkpt lat="67.860401" lon="20.240175">
        <ele>578.818</ele>
        <time>1970-01-01T01:00:00Z</time>
      </trkpt>
      <trkpt lat="67.860352" lon="20.240424">
        <ele>578.727</ele>
        <time>1970-01-01T01:00:00Z</time>
      </trkpt>
      <trkpt lat="67.860319" lon="20.240629">
        <ele>578.636</ele>
        <time>1970-01-01T01:00:00Z</time>
      </trkpt>
      <trkpt lat="67.860289" lon="20.240861">
        <ele>578.455</ele>
        <time>1970-01-01T01:00:00Z</time>
      </trkpt>
      <trkpt lat="67.86031" lon="20.241079">
        <ele>578.273</ele>
        <time>1970-01-01T01:00:00Z</time>
      </trkpt>
      <trkpt lat="67.860285" lon="20.241309">
        <ele>578.091</ele>
        <time>1970-01-01T01:00:00Z</time>
      </trkpt>
      <trkpt lat="67.860267" lon="20.241548">
        <ele>577.818</ele>
        <time>1970-01-01T01:00:00Z</time>
      </trkpt>
      <trkpt lat="67.860281" lon="20.241767">
        <ele>577.455</ele>
        <time>1970-01-01T01:00:00Z</time>
      </trkpt>
      <trkpt lat="67.860305" lon="20.242014">
        <ele>577</ele>
        <time>1970-01-01T01:00:00Z</time>
      </trkpt>
      <trkpt lat="67.860315" lon="20.242243">
        <ele>576.455</ele>
        <time>1970-01-01T01:00:00Z</time>
      </trkpt>
      <trkpt lat="67.860333" lon="20.242467">
        <ele>575.818</ele>
        <time>1970-01-01T01:00:00Z</time>
      </trkpt>
      <trkpt lat="67.860349" lon="20.242679">
        <ele>575.182</ele>
        <time>1970-01-01T01:00:00Z</time>
      </trkpt>
      <trkpt lat="67.860368" lon="20.242918">
        <ele>574.455</ele>
        <time>1970-01-01T01:00:00Z</time>
      </trkpt>
      <trkpt lat="67.860389" lon="20.243177">
        <ele>573.545</ele>
        <time>1970-01-01T01:00:00Z</time>
      </trkpt>
      <trkpt lat="67.860413" lon="20.243385">
        <ele>572.636</ele>
        <time>1970-01-01T01:00:00Z</time>
      </trkpt>
      <trkpt lat="67.860463" lon="20.243575">
        <ele>571.636</ele>
        <time>1970-01-01T01:00:00Z</time>
      </trkpt>
      <trkpt lat="67.860495" lon="20.243783">
        <ele>570.545</ele>
        <time>1970-01-01T01:00:00Z</time>
      </trkpt>
      <trkpt lat="67.860561" lon="20.243937">
        <ele>569.364</ele>
        <time>1970-01-01T01:00:00Z</time>
      </trkpt>
      <trkpt lat="67.860607" lon="20.244121">
        <ele>568.091</ele>
        <time>1970-01-01T01:00:00Z</time>
      </trkpt>
      <trkpt lat="67.860648" lon="20.244317">
        <ele>566.818</ele>
        <time>1970-01-01T01:00:00Z</time>
      </trkpt>
      <trkpt lat="67.860702" lon="20.24449">
        <ele>565.545</ele>
        <time>1970-01-01T01:00:00Z</time>
      </trkpt>
      <trkpt lat="67.86077" lon="20.244625">
        <ele>564.273</ele>
        <time>1970-01-01T01:00:00Z</time>
      </trkpt>
      <trkpt lat="67.860845" lon="20.24471">
        <ele>563</ele>
        <time>1970-01-01T01:00:00Z</time>
      </trkpt>
      <trkpt lat="67.860916" lon="20.244831">
        <ele>561.909</ele>
        <time>1970-01-01T01:00:00Z</time>
      </trkpt>
      <trkpt lat="67.860989" lon="20.244975">
        <ele>560.909</ele>
        <time>1970-01-01T01:00:00Z</time>
      </trkpt>
      <trkpt lat="67.861049" lon="20.245131">
        <ele>559.909</ele>
        <time>1970-01-01T01:00:00Z</time>
      </trkpt>
      <trkpt lat="67.861097" lon="20.24532">
        <ele>558.909</ele>
        <time>1970-01-01T01:00:00Z</time>
      </trkpt>
      <trkpt lat="67.861079" lon="20.245565">
        <ele>558</ele>
        <time>1970-01-01T01:00:00Z</time>
      </trkpt>
      <trkpt lat="67.861034" lon="20.245767">
        <ele>557.091</ele>
        <time>1970-01-01T01:00:00Z</time>
      </trkpt>
      <trkpt lat="67.861082" lon="20.245955">
        <ele>556.273</ele>
        <time>1970-01-01T01:00:00Z</time>
      </trkpt>
      <trkpt lat="67.861159" lon="20.246035">
        <ele>555.545</ele>
        <time>1970-01-01T01:00:00Z</time>
      </trkpt>
      <trkpt lat="67.861222" lon="20.246191">
        <ele>554.909</ele>
        <time>1970-01-01T01:00:00Z</time>
      </trkpt>
      <trkpt lat="67.861267" lon="20.246373">
        <ele>554.364</ele>
        <time>1970-01-01T01:00:00Z</time>
      </trkpt>
      <trkpt lat="67.861338" lon="20.24656">
        <ele>554</ele>
        <time>1970-01-01T01:00:00Z</time>
      </trkpt>
      <trkpt lat="67.861415" lon="20.246717">
        <ele>553.545</ele>
        <time>1970-01-01T01:00:00Z</time>
      </trkpt>
      <trkpt lat="67.861489" lon="20.246831">
        <ele>553.091</ele>
        <time>1970-01-01T01:00:00Z</time>
      </trkpt>
      <trkpt lat="67.861573" lon="20.246837">
        <ele>552.818</ele>
        <time>1970-01-01T01:00:00Z</time>
      </trkpt>
      <trkpt lat="67.861646" lon="20.246996">
        <ele>552.636</ele>
        <time>1970-01-01T01:00:00Z</time>
      </trkpt>
      <trkpt lat="67.861714" lon="20.24716">
        <ele>552.545</ele>
        <time>1970-01-01T01:00:00Z</time>
      </trkpt>
      <trkpt lat="67.861764" lon="20.247343">
        <ele>552.455</ele>
        <time>1970-01-01T01:00:00Z</time>
      </trkpt>
      <trkpt lat="67.861827" lon="20.247481">
        <ele>552.455</ele>
        <time>1970-01-01T01:00:00Z</time>
      </trkpt>
      <trkpt lat="67.861903" lon="20.247617">
        <ele>552.455</ele>
        <time>1970-01-01T01:00:00Z</time>
      </trkpt>
      <trkpt lat="67.861982" lon="20.247736">
        <ele>552.455</ele>
        <time>1970-01-01T01:00:00Z</time>
      </trkpt>
      <trkpt lat="67.862072" lon="20.247846">
        <ele>552.455</ele>
        <time>1970-01-01T01:00:00Z</time>
      </trkpt>
      <trkpt lat="67.862144" lon="20.247967">
        <ele>552.273</ele>
        <time>1970-01-01T01:00:00Z</time>
      </trkpt>
      <trkpt lat="67.862211" lon="20.248131">
        <ele>552.091</ele>
        <time>1970-01-01T01:00:00Z</time>
      </trkpt>
      <trkpt lat="67.862288" lon="20.248238">
        <ele>552</ele>
        <time>1970-01-01T01:00:00Z</time>
      </trkpt>
      <trkpt lat="67.862354" lon="20.248396">
        <ele>551.818</ele>
        <time>1970-01-01T01:00:00Z</time>
      </trkpt>
      <trkpt lat="67.862417" lon="20.248561">
        <ele>551.727</ele>
        <time>1970-01-01T01:00:00Z</time>
      </trkpt>
      <trkpt lat="67.862481" lon="20.248695">
        <ele>551.636</ele>
        <time>1970-01-01T01:00:00Z</time>
      </trkpt>
      <trkpt lat="67.862527" lon="20.248882">
        <ele>551.636</ele>
        <time>1970-01-01T01:00:00Z</time>
      </trkpt>
      <trkpt lat="67.86258" lon="20.249084">
        <ele>551.636</ele>
        <time>1970-01-01T01:00:00Z</time>
      </trkpt>
      <trkpt lat="67.862635" lon="20.249289">
        <ele>551.636</ele>
        <time>1970-01-01T01:00:00Z</time>
      </trkpt>
      <trkpt lat="67.862693" lon="20.249459">
        <ele>551.636</ele>
        <time>1970-01-01T01:00:00Z</time>
      </trkpt>
      <trkpt lat="67.862743" lon="20.249653">
        <ele>551.636</ele>
        <time>1970-01-01T01:00:00Z</time>
      </trkpt>
      <trkpt lat="67.86279" lon="20.249846">
        <ele>551.818</ele>
        <time>1970-01-01T01:00:00Z</time>
      </trkpt>
      <trkpt lat="67.862837" lon="20.250058">
        <ele>552</ele>
        <time>1970-01-01T01:00:00Z</time>
      </trkpt>
      <trkpt lat="67.862881" lon="20.250274">
        <ele>552.273</ele>
        <time>1970-01-01T01:00:00Z</time>
      </trkpt>
      <trkpt lat="67.862932" lon="20.250454">
        <ele>552.636</ele>
        <time>1970-01-01T01:00:00Z</time>
      </trkpt>
      <trkpt lat="67.862974" lon="20.250657">
        <ele>552.909</ele>
        <time>1970-01-01T01:00:00Z</time>
      </trkpt>
      <trkpt lat="67.863007" lon="20.250868">
        <ele>553.273</ele>
        <time>1970-01-01T01:00:00Z</time>
      </trkpt>
      <trkpt lat="67.863049" lon="20.251076">
        <ele>553.727</ele>
        <time>1970-01-01T01:00:00Z</time>
      </trkpt>
      <trkpt lat="67.863053" lon="20.2513">
        <ele>554.273</ele>
        <time>1970-01-01T01:00:00Z</time>
      </trkpt>
      <trkpt lat="67.863048" lon="20.251519">
        <ele>554.909</ele>
        <time>1970-01-01T01:00:00Z</time>
      </trkpt>
      <trkpt lat="67.863079" lon="20.25174">
        <ele>555.545</ele>
        <time>1970-01-01T01:00:00Z</time>
      </trkpt>
      <trkpt lat="67.863048" lon="20.251979">
        <ele>556.273</ele>
        <time>1970-01-01T01:00:00Z</time>
      </trkpt>
      <trkpt lat="67.863004" lon="20.252168">
        <ele>556.909</ele>
        <time>1970-01-01T01:00:00Z</time>
      </trkpt>
      <trkpt lat="67.862995" lon="20.252408">
        <ele>557.545</ele>
        <time>1970-01-01T01:00:00Z</time>
      </trkpt>
      <trkpt lat="67.86303" lon="20.252613">
        <ele>558.182</ele>
        <time>1970-01-01T01:00:00Z</time>
      </trkpt>
      <trkpt lat="67.86305" lon="20.252846">
        <ele>558.818</ele>
        <time>1970-01-01T01:00:00Z</time>
      </trkpt>
      <trkpt lat="67.863042" lon="20.253099">
        <ele>559.455</ele>
        <time>1970-01-01T01:00:00Z</time>
      </trkpt>
      <trkpt lat="67.86304" lon="20.253344">
        <ele>560.091</ele>
        <time>1970-01-01T01:00:00Z</time>
      </trkpt>
      <trkpt lat="67.863015" lon="20.253561">
        <ele>560.636</ele>
        <time>1970-01-01T01:00:00Z</time>
      </trkpt>
      <trkpt lat="67.862969" lon="20.253748">
        <ele>561.182</ele>
        <time>1970-01-01T01:00:00Z</time>
      </trkpt>
      <trkpt lat="67.862905" lon="20.253962">
        <ele>561.545</ele>
        <time>1970-01-01T01:00:00Z</time>
      </trkpt>
      <trkpt lat="67.862843" lon="20.254154">
        <ele>561.909</ele>
        <time>1970-01-01T01:00:00Z</time>
      </trkpt>
      <trkpt lat="67.86282" lon="20.254369">
        <ele>562.273</ele>
        <time>1970-01-01T01:00:00Z</time>
      </trkpt>
      <trkpt lat="67.862759" lon="20.254536">
        <ele>562.636</ele>
        <time>1970-01-01T01:00:00Z</time>
      </trkpt>
      <trkpt lat="67.862721" lon="20.254742">
        <ele>562.909</ele>
        <time>1970-01-01T01:00:00Z</time>
      </trkpt>
      <trkpt lat="67.86273" lon="20.254958">
        <ele>563.091</ele>
        <time>1970-01-01T01:00:00Z</time>
      </trkpt>
      <trkpt lat="67.862707" lon="20.255194">
        <ele>563.182</ele>
        <time>1970-01-01T01:00:00Z</time>
      </trkpt>
      <trkpt lat="67.86262" lon="20.255331">
        <ele>563.273</ele>
        <time>1970-01-01T01:00:00Z</time>
      </trkpt>
      <trkpt lat="67.862553" lon="20.255461">
        <ele>563.273</ele>
        <time>1970-01-01T01:00:00Z</time>
      </trkpt>
      <trkpt lat="67.862524" lon="20.255681">
        <ele>563.273</ele>
        <time>1970-01-01T01:00:00Z</time>
      </trkpt>
      <trkpt lat="67.862481" lon="20.255867">
        <ele>563.182</ele>
        <time>1970-01-01T01:00:00Z</time>
      </trkpt>
      <trkpt lat="67.862406" lon="20.256033">
        <ele>563.273</ele>
        <time>1970-01-01T01:00:00Z</time>
      </trkpt>
      <trkpt lat="67.862349" lon="20.256237">
        <ele>563.364</ele>
        <time>1970-01-01T01:00:00Z</time>
      </trkpt>
      <trkpt lat="67.862294" lon="20.256421">
        <ele>563.364</ele>
        <time>1970-01-01T01:00:00Z</time>
      </trkpt>
      <trkpt lat="67.862244" lon="20.25659">
        <ele>563.273</ele>
        <time>1970-01-01T01:00:00Z</time>
      </trkpt>
      <trkpt lat="67.862185" lon="20.256747">
        <ele>563.364</ele>
        <time>1970-01-01T01:00:00Z</time>
      </trkpt>
      <trkpt lat="67.862104" lon="20.256857">
        <ele>563.455</ele>
        <time>1970-01-01T01:00:00Z</time>
      </trkpt>
      <trkpt lat="67.862035" lon="20.257013">
        <ele>563.545</ele>
        <time>1970-01-01T01:00:00Z</time>
      </trkpt>
      <trkpt lat="67.86199" lon="20.257203">
        <ele>563.727</ele>
        <time>1970-01-01T01:00:00Z</time>
      </trkpt>
      <trkpt lat="67.861935" lon="20.257386">
        <ele>563.909</ele>
        <time>1970-01-01T01:00:00Z</time>
      </trkpt>
      <trkpt lat="67.861853" lon="20.257518">
        <ele>564.091</ele>
        <time>1970-01-01T01:00:00Z</time>
      </trkpt>
      <trkpt lat="67.861798" lon="20.257699">
        <ele>564.273</ele>
        <time>1970-01-01T01:00:00Z</time>
      </trkpt>
      <trkpt lat="67.861721" lon="20.257781">
        <ele>564.364</ele>
        <time>1970-01-01T01:00:00Z</time>
      </trkpt>
      <trkpt lat="67.861642" lon="20.257938">
        <ele>564.455</ele>
        <time>1970-01-01T01:00:00Z</time>
      </trkpt>
      <trkpt lat="67.861584" lon="20.258108">
        <ele>564.545</ele>
        <time>1970-01-01T01:00:00Z</time>
      </trkpt>
      <trkpt lat="67.861529" lon="20.258291">
        <ele>564.636</ele>
        <time>1970-01-01T01:00:00Z</time>
      </trkpt>
      <trkpt lat="67.861459" lon="20.25841">
        <ele>564.545</ele>
        <time>1970-01-01T01:00:00Z</time>
      </trkpt>
      <trkpt lat="67.861384" lon="20.258536">
        <ele>564.364</ele>
        <time>1970-01-01T01:00:00Z</time>
      </trkpt>
      <trkpt lat="67.861291" lon="20.258631">
        <ele>564.182</ele>
        <time>1970-01-01T01:00:00Z</time>
      </trkpt>
      <trkpt lat="67.861219" lon="20.258788">
        <ele>563.818</ele>
        <time>1970-01-01T01:00:00Z</time>
      </trkpt>
      <trkpt lat="67.86115" lon="20.25895">
        <ele>563.455</ele>
        <time>1970-01-01T01:00:00Z</time>
      </trkpt>
      <trkpt lat="67.861094" lon="20.259124">
        <ele>563</ele>
        <time>1970-01-01T01:00:00Z</time>
      </trkpt>
      <trkpt lat="67.861044" lon="20.259333">
        <ele>562.455</ele>
        <time>1970-01-01T01:00:00Z</time>
      </trkpt>
      <trkpt lat="67.860979" lon="20.2595">
        <ele>561.818</ele>
        <time>1970-01-01T01:00:00Z</time>
      </trkpt>
      <trkpt lat="67.860904" lon="20.259631">
        <ele>561.091</ele>
        <time>1970-01-01T01:00:00Z</time>
      </trkpt>
      <trkpt lat="67.860817" lon="20.259721">
        <ele>560.364</ele>
        <time>1970-01-01T01:00:00Z</time>
      </trkpt>
      <trkpt lat="67.860756" lon="20.259922">
        <ele>559.636</ele>
        <time>1970-01-01T01:00:00Z</time>
      </trkpt>
      <trkpt lat="67.860713" lon="20.260108">
        <ele>559</ele>
        <time>1970-01-01T01:00:00Z</time>
      </trkpt>
      <trkpt lat="67.86066" lon="20.260275">
        <ele>558.455</ele>
        <time>1970-01-01T01:00:00Z</time>
      </trkpt>
      <trkpt lat="67.860593" lon="20.260401">
        <ele>557.818</ele>
        <time>1970-01-01T01:00:00Z</time>
      </trkpt>
      <trkpt lat="67.860512" lon="20.260485">
        <ele>557.182</ele>
        <time>1970-01-01T01:00:00Z</time>
      </trkpt>
      <trkpt lat="67.860444" lon="20.260658">
        <ele>556.636</ele>
        <time>1970-01-01T01:00:00Z</time>
      </trkpt>
      <trkpt lat="67.860363" lon="20.260757">
        <ele>556.182</ele>
        <time>1970-01-01T01:00:00Z</time>
      </trkpt>
      <trkpt lat="67.86029" lon="20.260883">
        <ele>555.818</ele>
        <time>1970-01-01T01:00:00Z</time>
      </trkpt>
      <trkpt lat="67.860205" lon="20.261">
        <ele>555.545</ele>
        <time>1970-01-01T01:00:00Z</time>
      </trkpt>
      <trkpt lat="67.86013" lon="20.261134">
        <ele>555.364</ele>
        <time>1970-01-01T01:00:00Z</time>
      </trkpt>
      <trkpt lat="67.860051" lon="20.261181">
        <ele>555.182</ele>
        <time>1970-01-01T01:00:00Z</time>
      </trkpt>
      <trkpt lat="67.859965" lon="20.261141">
        <ele>555.091</ele>
        <time>1970-01-01T01:00:00Z</time>
      </trkpt>
      <trkpt lat="67.859874" lon="20.2611">
        <ele>555.091</ele>
        <time>1970-01-01T01:00:00Z</time>
      </trkpt>
      <trkpt lat="67.859789" lon="20.261035">
        <ele>555</ele>
        <time>1970-01-01T01:00:00Z</time>
      </trkpt>
      <trkpt lat="67.859707" lon="20.261074">
        <ele>555</ele>
        <time>1970-01-01T01:00:00Z</time>
      </trkpt>
      <trkpt lat="67.859619" lon="20.261191">
        <ele>555.091</ele>
        <time>1970-01-01T01:00:00Z</time>
      </trkpt>
      <trkpt lat="67.859532" lon="20.261173">
        <ele>555.091</ele>
        <time>1970-01-01T01:00:00Z</time>
      </trkpt>
      <trkpt lat="67.859438" lon="20.261145">
        <ele>555.091</ele>
        <time>1970-01-01T01:00:00Z</time>
      </trkpt>
      <trkpt lat="67.859349" lon="20.26125">
        <ele>555.091</ele>
        <time>1970-01-01T01:00:00Z</time>
      </trkpt>
      <trkpt lat="67.859253" lon="20.261268">
        <ele>555.091</ele>
        <time>1970-01-01T01:00:00Z</time>
      </trkpt>
      <trkpt lat="67.85917" lon="20.261212">
        <ele>555</ele>
        <time>1970-01-01T01:00:00Z</time>
      </trkpt>
      <trkpt lat="67.859088" lon="20.261193">
        <ele>554.909</ele>
        <time>1970-01-01T01:00:00Z</time>
      </trkpt>
      <trkpt lat="67.859002" lon="20.261166">
        <ele>554.727</ele>
        <time>1970-01-01T01:00:00Z</time>
      </trkpt>
      <trkpt lat="67.858918" lon="20.261131">
        <ele>554.545</ele>
        <time>1970-01-01T01:00:00Z</time>
      </trkpt>
      <trkpt lat="67.858833" lon="20.261092">
        <ele>554.455</ele>
        <time>1970-01-01T01:00:00Z</time>
      </trkpt>
      <trkpt lat="67.858752" lon="20.261099">
        <ele>554.364</ele>
        <time>1970-01-01T01:00:00Z</time>
      </trkpt>
      <trkpt lat="67.858666" lon="20.261031">
        <ele>554.273</ele>
        <time>1970-01-01T01:00:00Z</time>
      </trkpt>
      <trkpt lat="67.858577" lon="20.260979">
        <ele>554.182</ele>
        <time>1970-01-01T01:00:00Z</time>
      </trkpt>
      <trkpt lat="67.858506" lon="20.260816">
        <ele>554.091</ele>
        <time>1970-01-01T01:00:00Z</time>
      </trkpt>
      <trkpt lat="67.858442" lon="20.260655">
        <ele>554</ele>
        <time>1970-01-01T01:00:00Z</time>
      </trkpt>
      <trkpt lat="67.858357" lon="20.260565">
        <ele>553.909</ele>
        <time>1970-01-01T01:00:00Z</time>
      </trkpt>
      <trkpt lat="67.858304" lon="20.260401">
        <ele>554</ele>
        <time>1970-01-01T01:00:00Z</time>
      </trkpt>
      <trkpt lat="67.858238" lon="20.26024">
        <ele>554.091</ele>
        <time>1970-01-01T01:00:00Z</time>
      </trkpt>
      <trkpt lat="67.85819" lon="20.260022">
        <ele>554.273</ele>
        <time>1970-01-01T01:00:00Z</time>
      </trkpt>
      <trkpt lat="67.858142" lon="20.259825">
        <ele>554.364</ele>
        <time>1970-01-01T01:00:00Z</time>
      </trkpt>
      <trkpt lat="67.858067" lon="20.259686">
        <ele>554.455</ele>
        <time>1970-01-01T01:00:00Z</time>
      </trkpt>
      <trkpt lat="67.858023" lon="20.259471">
        <ele>554.636</ele>
        <time>1970-01-01T01:00:00Z</time>
      </trkpt>
      <trkpt lat="67.857992" lon="20.259241">
        <ele>554.909</ele>
        <time>1970-01-01T01:00:00Z</time>
      </trkpt>
      <trkpt lat="67.857988" lon="20.259023">
        <ele>555.182</ele>
        <time>1970-01-01T01:00:00Z</time>
      </trkpt>
      <trkpt lat="67.857947" lon="20.258838">
        <ele>555.545</ele>
        <time>1970-01-01T01:00:00Z</time>
      </trkpt>
      <trkpt lat="67.857935" lon="20.258582">
        <ele>555.909</ele>
        <time>1970-01-01T01:00:00Z</time>
      </trkpt>
      <trkpt lat="67.857932" lon="20.258359">
        <ele>556.364</ele>
        <time>1970-01-01T01:00:00Z</time>
      </trkpt>
      <trkpt lat="67.857934" lon="20.258112">
        <ele>556.727</ele>
        <time>1970-01-01T01:00:00Z</time>
      </trkpt>
      <trkpt lat="67.857942" lon="20.25789">
        <ele>557.182</ele>
        <time>1970-01-01T01:00:00Z</time>
      </trkpt>
      <trkpt lat="67.857931" lon="20.257644">
        <ele>557.636</ele>
        <time>1970-01-01T01:00:00Z</time>
      </trkpt>
      <trkpt lat="67.857907" lon="20.257407">
        <ele>558.182</ele>
        <time>1970-01-01T01:00:00Z</time>
      </trkpt>
      <trkpt lat="67.857917" lon="20.257175">
        <ele>558.727</ele>
        <time>1970-01-01T01:00:00Z</time>
      </trkpt>
      <trkpt lat="67.857898" lon="20.256966">
        <ele>559.273</ele>
        <time>1970-01-01T01:00:00Z</time>
      </trkpt>
      <trkpt lat="67.857899" lon="20.25674">
        <ele>559.727</ele>
        <time>1970-01-01T01:00:00Z</time>
      </trkpt>
      <trkpt lat="67.857899" lon="20.256494">
        <ele>560.273</ele>
        <time>1970-01-01T01:00:00Z</time>
      </trkpt>
      <trkpt lat="67.857919" lon="20.256273">
        <ele>560.727</ele>
        <time>1970-01-01T01:00:00Z</time>
      </trkpt>
      <trkpt lat="67.857919" lon="20.256057">
        <ele>561.273</ele>
        <time>1970-01-01T01:00:00Z</time>
      </trkpt>
      <trkpt lat="67.857913" lon="20.255836">
        <ele>561.727</ele>
        <time>1970-01-01T01:00:00Z</time>
      </trkpt>
      <trkpt lat="67.857913" lon="20.255609">
        <ele>562.182</ele>
        <time>1970-01-01T01:00:00Z</time>
      </trkpt>
      <trkpt lat="67.857906" lon="20.255377">
        <ele>562.636</ele>
        <time>1970-01-01T01:00:00Z</time>
      </trkpt>
      <trkpt lat="67.857911" lon="20.255143">
        <ele>563.091</ele>
        <time>1970-01-01T01:00:00Z</time>
      </trkpt>
      <trkpt lat="67.857892" lon="20.25492">
        <ele>563.545</ele>
        <time>1970-01-01T01:00:00Z</time>
      </trkpt>
      <trkpt lat="67.857901" lon="20.254683">
        <ele>564</ele>
        <time>1970-01-01T01:00:00Z</time>
      </trkpt>
      <trkpt lat="67.85792" lon="20.254465">
        <ele>564.455</ele>
        <time>1970-01-01T01:00:00Z</time>
      </trkpt>
      <trkpt lat="67.857933" lon="20.254248">
        <ele>564.909</ele>
        <time>1970-01-01T01:00:00Z</time>
      </trkpt>
      <trkpt lat="67.857953" lon="20.254034">
        <ele>565.364</ele>
        <time>1970-01-01T01:00:00Z</time>
      </trkpt>
      <trkpt lat="67.857988" lon="20.253803">
        <ele>565.818</ele>
        <time>1970-01-01T01:00:00Z</time>
      </trkpt>
      <trkpt lat="67.858001" lon="20.253589">
        <ele>566.182</ele>
        <time>1970-01-01T01:00:00Z</time>
      </trkpt>
      <trkpt lat="67.858033" lon="20.253348">
        <ele>566.636</ele>
        <time>1970-01-01T01:00:00Z</time>
      </trkpt>
      <trkpt lat="67.858081" lon="20.253157">
        <ele>567.091</ele>
        <time>1970-01-01T01:00:00Z</time>
      </trkpt>
      <trkpt lat="67.858114" lon="20.25295">
        <ele>567.545</ele>
        <time>1970-01-01T01:00:00Z</time>
      </trkpt>
      <trkpt lat="67.858162" lon="20.252753">
        <ele>568</ele>
        <time>1970-01-01T01:00:00Z</time>
      </trkpt>
      <trkpt lat="67.85823" lon="20.252577">
        <ele>568.364</ele>
        <time>1970-01-01T01:00:00Z</time>
      </trkpt>
      <trkpt lat="67.858275" lon="20.252397">
        <ele>568.727</ele>
        <time>1970-01-01T01:00:00Z</time>
      </trkpt>
      <trkpt lat="67.858332" lon="20.252232">
        <ele>569</ele>
        <time>1970-01-01T01:00:00Z</time>
      </trkpt>
      <trkpt lat="67.858389" lon="20.252027">
        <ele>569.273</ele>
        <time>1970-01-01T01:00:00Z</time>
      </trkpt>
      <trkpt lat="67.858449" lon="20.251851">
        <ele>569.545</ele>
        <time>1970-01-01T01:00:00Z</time>
      </trkpt>
      <trkpt lat="67.858514" lon="20.251662">
        <ele>569.727</ele>
        <time>1970-01-01T01:00:00Z</time>
      </trkpt>
      <trkpt lat="67.858585" lon="20.251543">
        <ele>569.909</ele>
        <time>1970-01-01T01:00:00Z</time>
      </trkpt>
      <trkpt lat="67.858649" lon="20.251391">
        <ele>570</ele>
        <time>1970-01-01T01:00:00Z</time>
      </trkpt>
      <trkpt lat="67.858708" lon="20.25124">
        <ele>570.091</ele>
        <time>1970-01-01T01:00:00Z</time>
      </trkpt>
      <trkpt lat="67.858738" lon="20.251021">
        <ele>570.091</ele>
        <time>1970-01-01T01:00:00Z</time>
      </trkpt>
      <trkpt lat="67.858823" lon="20.250999">
        <ele>570.182</ele>
        <time>1970-01-01T01:00:00Z</time>
      </trkpt>
      <trkpt lat="67.858919" lon="20.250968">
        <ele>570.273</ele>
        <time>1970-01-01T01:00:00Z</time>
      </trkpt>
      <trkpt lat="67.858969" lon="20.250774">
        <ele>570.364</ele>
        <time>1970-01-01T01:00:00Z</time>
      </trkpt>
      <trkpt lat="67.859013" lon="20.250576">
        <ele>570.455</ele>
        <time>1970-01-01T01:00:00Z</time>
      </trkpt>
      <trkpt lat="67.859055" lon="20.250345">
        <ele>570.545</ele>
        <time>1970-01-01T01:00:00Z</time>
      </trkpt>
      <trkpt lat="67.859097" lon="20.250151">
        <ele>570.455</ele>
        <time>1970-01-01T01:00:00Z</time>
      </trkpt>
      <trkpt lat="67.85916" lon="20.249981">
        <ele>570.455</ele>
        <time>1970-01-01T01:00:00Z</time>
      </trkpt>
      <trkpt lat="67.85922" lon="20.249824">
        <ele>570.455</ele>
        <time>1970-01-01T01:00:00Z</time>
      </trkpt>
      <trkpt lat="67.859283" lon="20.249657">
        <ele>570.455</ele>
        <time>1970-01-01T01:00:00Z</time>
      </trkpt>
      <trkpt lat="67.85934" lon="20.249489">
        <ele>570.455</ele>
        <time>1970-01-01T01:00:00Z</time>
      </trkpt>
      <trkpt lat="67.85942" lon="20.249337">
        <ele>570.455</ele>
        <time>1970-01-01T01:00:00Z</time>
      </trkpt>
      <trkpt lat="67.859497" lon="20.249241">
        <ele>570.455</ele>
        <time>1970-01-01T01:00:00Z</time>
      </trkpt>
      <trkpt lat="67.859577" lon="20.249145">
        <ele>570.545</ele>
        <time>1970-01-01T01:00:00Z</time>
      </trkpt>
      <trkpt lat="67.859621" lon="20.248959">
        <ele>570.818</ele>
        <time>1970-01-01T01:00:00Z</time>
      </trkpt>
      <trkpt lat="67.859606" lon="20.248723">
        <ele>571.182</ele>
        <time>1970-01-01T01:00:00Z</time>
      </trkpt>
      <trkpt lat="67.859545" lon="20.24858">
        <ele>571.545</ele>
        <time>1970-01-01T01:00:00Z</time>
      </trkpt>
      <trkpt lat="67.859476" lon="20.248442">
        <ele>571.909</ele>
        <time>1970-01-01T01:00:00Z</time>
      </trkpt>
      <trkpt lat="67.859418" lon="20.248258">
        <ele>572.273</ele>
        <time>1970-01-01T01:00:00Z</time>
      </trkpt>
      <trkpt lat="67.859368" lon="20.24805">
        <ele>572.545</ele>
        <time>1970-01-01T01:00:00Z</time>
      </trkpt>
      <trkpt lat="67.85936" lon="20.247829">
        <ele>572.727</ele>
        <time>1970-01-01T01:00:00Z</time>
      </trkpt>
      <trkpt lat="67.859428" lon="20.24765">
        <ele>572.818</ele>
        <time>1970-01-01T01:00:00Z</time>
      </trkpt>
      <trkpt lat="67.859494" lon="20.247507">
        <ele>572.818</ele>
        <time>1970-01-01T01:00:00Z</time>
      </trkpt>
      <trkpt lat="67.859564" lon="20.247369">
        <ele>572.636</ele>
        <time>1970-01-01T01:00:00Z</time>
      </trkpt>
      <trkpt lat="67.859644" lon="20.247306">
        <ele>572.273</ele>
        <time>1970-01-01T01:00:00Z</time>
      </trkpt>
      <trkpt lat="67.859725" lon="20.247233">
        <ele>571.636</ele>
        <time>1970-01-01T01:00:00Z</time>
      </trkpt>
      <trkpt lat="67.859801" lon="20.247142">
        <ele>570.818</ele>
        <time>1970-01-01T01:00:00Z</time>
      </trkpt>
      <trkpt lat="67.859883" lon="20.247052">
        <ele>569.909</ele>
        <time>1970-01-01T01:00:00Z</time>
      </trkpt>
      <trkpt lat="67.859972" lon="20.247069">
        <ele>569</ele>
        <time>1970-01-01T01:00:00Z</time>
      </trkpt>
      <trkpt lat="67.860066" lon="20.247064">
        <ele>568.091</ele>
        <time>1970-01-01T01:00:00Z</time>
      </trkpt>
      <trkpt lat="67.860149" lon="20.246973">
        <ele>567.182</ele>
        <time>1970-01-01T01:00:00Z</time>
      </trkpt>
      <trkpt lat="67.860241" lon="20.246862">
        <ele>566.273</ele>
        <time>1970-01-01T01:00:00Z</time>
      </trkpt>
      <trkpt lat="67.860323" lon="20.246794">
        <ele>565.455</ele>
        <time>1970-01-01T01:00:00Z</time>
      </trkpt>
      <trkpt lat="67.860395" lon="20.246649">
        <ele>564.636</ele>
        <time>1970-01-01T01:00:00Z</time>
      </trkpt>
      <trkpt lat="67.860463" lon="20.246494">
        <ele>563.818</ele>
        <time>1970-01-01T01:00:00Z</time>
      </trkpt>
      <trkpt lat="67.860541" lon="20.246398">
        <ele>563</ele>
        <time>1970-01-01T01:00:00Z</time>
      </trkpt>
      <trkpt lat="67.860614" lon="20.246293">
        <ele>562.182</ele>
        <time>1970-01-01T01:00:00Z</time>
      </trkpt>
      <trkpt lat="67.860708" lon="20.246186">
        <ele>561.455</ele>
        <time>1970-01-01T01:00:00Z</time>
      </trkpt>
      <trkpt lat="67.860795" lon="20.246082">
        <ele>560.909</ele>
        <time>1970-01-01T01:00:00Z</time>
      </trkpt>
      <trkpt lat="67.860864" lon="20.245958">
        <ele>560.545</ele>
        <time>1970-01-01T01:00:00Z</time>
      </trkpt>
      <trkpt lat="67.860939" lon="20.245845">
        <ele>560.273</ele>
        <time>1970-01-01T01:00:00Z</time>
      </trkpt>
      <trkpt lat="67.861017" lon="20.24572">
        <ele>560.182</ele>
        <time>1970-01-01T01:00:00Z</time>
      </trkpt>
      <trkpt lat="67.861066" lon="20.245541">
        <ele>560.364</ele>
        <time>1970-01-01T01:00:00Z</time>
      </trkpt>
      <trkpt lat="67.86106" lon="20.245305">
        <ele>560.727</ele>
        <time>1970-01-01T01:00:00Z</time>
      </trkpt>
      <trkpt lat="67.860999" lon="20.245111">
        <ele>561.273</ele>
        <time>1970-01-01T01:00:00Z</time>
      </trkpt>
      <trkpt lat="67.860935" lon="20.244976">
        <ele>562</ele>
        <time>1970-01-01T01:00:00Z</time>
      </trkpt>
      <trkpt lat="67.860855" lon="20.244835">
        <ele>563</ele>
        <time>1970-01-01T01:00:00Z</time>
      </trkpt>
      <trkpt lat="67.860782" lon="20.244662">
        <ele>564.182</ele>
        <time>1970-01-01T01:00:00Z</time>
      </trkpt>
      <trkpt lat="67.860711" lon="20.244521">
        <ele>565.455</ele>
        <time>1970-01-01T01:00:00Z</time>
      </trkpt>
      <trkpt lat="67.860653" lon="20.24434">
        <ele>566.818</ele>
        <time>1970-01-01T01:00:00Z</time>
      </trkpt>
      <trkpt lat="67.860589" lon="20.244179">
        <ele>568.182</ele>
        <time>1970-01-01T01:00:00Z</time>
      </trkpt>
      <trkpt lat="67.860522" lon="20.244001">
        <ele>569.545</ele>
        <time>1970-01-01T01:00:00Z</time>
      </trkpt>
      <trkpt lat="67.860483" lon="20.243789">
        <ele>570.818</ele>
        <time>1970-01-01T01:00:00Z</time>
      </trkpt>
      <trkpt lat="67.860435" lon="20.2436">
        <ele>571.909</ele>
        <time>1970-01-01T01:00:00Z</time>
      </trkpt>
      <trkpt lat="67.860375" lon="20.243451">
        <ele>572.909</ele>
        <time>1970-01-01T01:00:00Z</time>
      </trkpt>
      <trkpt lat="67.860334" lon="20.243244">
        <ele>573.818</ele>
        <time>1970-01-01T01:00:00Z</time>
      </trkpt>
      <trkpt lat="67.860313" lon="20.243037">
        <ele>574.727</ele>
        <time>1970-01-01T01:00:00Z</time>
      </trkpt>
      <trkpt lat="67.860308" lon="20.242815">
        <ele>575.455</ele>
        <time>1970-01-01T01:00:00Z</time>
      </trkpt>
      <trkpt lat="67.860309" lon="20.24256">
        <ele>576.091</ele>
        <time>1970-01-01T01:00:00Z</time>
      </trkpt>
      <trkpt lat="67.860315" lon="20.242324">
        <ele>576.727</ele>
        <time>1970-01-01T01:00:00Z</time>
      </trkpt>
      <trkpt lat="67.860316" lon="20.2421">
        <ele>577.182</ele>
        <time>1970-01-01T01:00:00Z</time>
      </trkpt>
      <trkpt lat="67.860309" lon="20.241835">
        <ele>577.545</ele>
        <time>1970-01-01T01:00:00Z</time>
      </trkpt>
      <trkpt lat="67.8603" lon="20.241607">
        <ele>577.818</ele>
        <time>1970-01-01T01:00:00Z</time>
      </trkpt>
      <trkpt lat="67.860286" lon="20.241393">
        <ele>578.091</ele>
        <time>1970-01-01T01:00:00Z</time>
      </trkpt>
      <trkpt lat="67.860265" lon="20.241168">
        <ele>578.364</ele>
        <time>1970-01-01T01:00:00Z</time>
      </trkpt>
      <trkpt lat="67.860295" lon="20.240959">
        <ele>578.545</ele>
        <time>1970-01-01T01:00:00Z</time>
      </trkpt>
      <trkpt lat="67.860272" lon="20.24074">
        <ele>578.727</ele>
        <time>1970-01-01T01:00:00Z</time>
      </trkpt>
      <trkpt lat="67.860339" lon="20.24056">
        <ele>578.818</ele>
        <time>1970-01-01T01:00:00Z</time>
      </trkpt>
      <trkpt lat="67.860361" lon="20.24033">
        <ele>578.909</ele>
        <time>1970-01-01T01:00:00Z</time>
      </trkpt>
      <trkpt lat="67.860386" lon="20.240044">
        <ele>579</ele>
        <time>1970-01-01T01:00:00Z</time>
      </trkpt>
      <trkpt lat="67.860372" lon="20.239831">
        <ele>579</ele>
        <time>1970-01-01T01:00:00Z</time>
      </trkpt>
      <trkpt lat="67.860407" lon="20.239615">
        <ele>579</ele>
        <time>1970-01-01T01:00:00Z</time>
      </trkpt>
      <trkpt lat="67.860451" lon="20.239399">
        <ele>579.091</ele>
        <time>1970-01-01T01:00:00Z</time>
      </trkpt>
      <trkpt lat="67.860477" lon="20.239179">
        <ele>579.182</ele>
        <time>1970-01-01T01:00:00Z</time>
      </trkpt>
      <trkpt lat="67.86043" lon="20.238947">
        <ele>579.364</ele>
        <time>1970-01-01T01:00:00Z</time>
      </trkpt>
      <trkpt lat="67.860395" lon="20.238722">
        <ele>579.545</ele>
        <time>1970-01-01T01:00:00Z</time>
      </trkpt>
      <trkpt lat="67.860369" lon="20.23851">
        <ele>579.636</ele>
        <time>1970-01-01T01:00:00Z</time>
      </trkpt>
      <trkpt lat="67.860344" lon="20.238289">
        <ele>579.727</ele>
        <time>1970-01-01T01:00:00Z</time>
      </trkpt>
      <trkpt lat="67.860321" lon="20.238045">
        <ele>579.818</ele>
        <time>1970-01-01T01:00:00Z</time>
      </trkpt>
      <trkpt lat="67.860294" lon="20.237842">
        <ele>580</ele>
        <time>1970-01-01T01:00:00Z</time>
      </trkpt>
      <trkpt lat="67.860304" lon="20.237603">
        <ele>580.182</ele>
        <time>1970-01-01T01:00:00Z</time>
      </trkpt>
      <trkpt lat="67.860348" lon="20.237401">
        <ele>580.364</ele>
        <time>1970-01-01T01:00:00Z</time>
      </trkpt>
      <trkpt lat="67.86037" lon="20.23717">
        <ele>580.636</ele>
        <time>1970-01-01T01:00:00Z</time>
      </trkpt>
      <trkpt lat="67.860372" lon="20.236952">
        <ele>580.909</ele>
        <time>1970-01-01T01:00:00Z</time>
      </trkpt>
      <trkpt lat="67.860367" lon="20.236718">
        <ele>581.182</ele>
        <time>1970-01-01T01:00:00Z</time>
      </trkpt>
      <trkpt lat="67.860379" lon="20.236447">
        <ele>581.455</ele>
        <time>1970-01-01T01:00:00Z</time>
      </trkpt>
      <trkpt lat="67.860394" lon="20.236223">
        <ele>581.818</ele>
        <time>1970-01-01T01:00:00Z</time>
      </trkpt>
      <trkpt lat="67.860343" lon="20.236008">
        <ele>582.273</ele>
        <time>1970-01-01T01:00:00Z</time>
      </trkpt>
      <trkpt lat="67.860318" lon="20.235756">
        <ele>582.727</ele>
        <time>1970-01-01T01:00:00Z</time>
      </trkpt>
      <trkpt lat="67.860257" lon="20.235612">
        <ele>583.273</ele>
        <time>1970-01-01T01:00:00Z</time>
      </trkpt>
      <trkpt lat="67.860211" lon="20.23542">
        <ele>583.727</ele>
        <time>1970-01-01T01:00:00Z</time>
      </trkpt>
      <trkpt lat="67.860197" lon="20.235191">
        <ele>584.182</ele>
        <time>1970-01-01T01:00:00Z</time>
      </trkpt>
      <trkpt lat="67.860189" lon="20.234952">
        <ele>584.636</ele>
        <time>1970-01-01T01:00:00Z</time>
      </trkpt>
      <trkpt lat="67.860194" lon="20.234718">
        <ele>585</ele>
        <time>1970-01-01T01:00:00Z</time>
      </trkpt>
      <trkpt lat="67.860165" lon="20.234497">
        <ele>585.364</ele>
        <time>1970-01-01T01:00:00Z</time>
      </trkpt>
      <trkpt lat="67.860152" lon="20.234263">
        <ele>585.818</ele>
        <time>1970-01-01T01:00:00Z</time>
      </trkpt>
      <trkpt lat="67.860155" lon="20.234048">
        <ele>586.273</ele>
        <time>1970-01-01T01:00:00Z</time>
      </trkpt>
      <trkpt lat="67.860131" lon="20.233838">
        <ele>586.727</ele>
        <time>1970-01-01T01:00:00Z</time>
      </trkpt>
      <trkpt lat="67.860083" lon="20.233659">
        <ele>587.182</ele>
        <time>1970-01-01T01:00:00Z</time>
      </trkpt>
      <trkpt lat="67.860014" lon="20.233525">
        <ele>587.636</ele>
        <time>1970-01-01T01:00:00Z</time>
      </trkpt>
      <trkpt lat="67.859951" lon="20.233381">
        <ele>588.091</ele>
        <time>1970-01-01T01:00:00Z</time>
      </trkpt>
      <trkpt lat="67.859874" lon="20.233248">
        <ele>588.545</ele>
        <time>1970-01-01T01:00:00Z</time>
      </trkpt>
      <trkpt lat="67.859784" lon="20.233223">
        <ele>589</ele>
        <time>1970-01-01T01:00:00Z</time>
      </trkpt>
      <trkpt lat="67.859717" lon="20.23306">
        <ele>589.545</ele>
        <time>1970-01-01T01:00:00Z</time>
      </trkpt>
      <trkpt lat="67.859666" lon="20.232871">
        <ele>590.091</ele>
        <time>1970-01-01T01:00:00Z</time>
      </trkpt>
      <trkpt lat="67.859607" lon="20.232693">
        <ele>590.545</ele>
        <time>1970-01-01T01:00:00Z</time>
      </trkpt>
      <trkpt lat="67.859559" lon="20.232514">
        <ele>590.909</ele>
        <time>1970-01-01T01:00:00Z</time>
      </trkpt>
      <trkpt lat="67.859536" lon="20.232277">
        <ele>591.273</ele>
        <time>1970-01-01T01:00:00Z</time>
      </trkpt>
      <trkpt lat="67.859489" lon="20.23207">
        <ele>591.545</ele>
        <time>1970-01-01T01:00:00Z</time>
      </trkpt>
      <trkpt lat="67.859451" lon="20.231847">
        <ele>591.818</ele>
        <time>1970-01-01T01:00:00Z</time>
      </trkpt>
      <trkpt lat="67.859428" lon="20.231631">
        <ele>592.182</ele>
        <time>1970-01-01T01:00:00Z</time>
      </trkpt>
      <trkpt lat="67.859375" lon="20.231422">
        <ele>592.455</ele>
        <time>1970-01-01T01:00:00Z</time>
      </trkpt>
      <trkpt lat="67.859337" lon="20.231207">
        <ele>592.727</ele>
        <time>1970-01-01T01:00:00Z</time>
      </trkpt>
      <trkpt lat="67.859303" lon="20.231012">
        <ele>593</ele>
        <time>1970-01-01T01:00:00Z</time>
      </trkpt>
      <trkpt lat="67.859261" lon="20.230807">
        <ele>593.182</ele>
        <time>1970-01-01T01:00:00Z</time>
      </trkpt>
      <trkpt lat="67.859186" lon="20.2306">
        <ele>593.364</ele>
        <time>1970-01-01T01:00:00Z</time>
      </trkpt>
      <trkpt lat="67.859143" lon="20.230417">
        <ele>593.455</ele>
        <time>1970-01-01T01:00:00Z</time>
      </trkpt>
      <trkpt lat="67.859093" lon="20.230228">
        <ele>593.545</ele>
        <time>1970-01-01T01:00:00Z</time>
      </trkpt>
      <trkpt lat="67.859065" lon="20.229993">
        <ele>593.545</ele>
        <time>1970-01-01T01:00:00Z</time>
      </trkpt>
      <trkpt lat="67.859011" lon="20.229817">
        <ele>593.455</ele>
        <time>1970-01-01T01:00:00Z</time>
      </trkpt>
      <trkpt lat="67.858953" lon="20.229662">
        <ele>593.273</ele>
        <time>1970-01-01T01:00:00Z</time>
      </trkpt>
      <trkpt lat="67.858888" lon="20.229493">
        <ele>593</ele>
        <time>1970-01-01T01:00:00Z</time>
      </trkpt>
      <trkpt lat="67.858823" lon="20.229283">
        <ele>592.727</ele>
        <time>1970-01-01T01:00:00Z</time>
      </trkpt>
      <trkpt lat="67.858763" lon="20.229109">
        <ele>592.455</ele>
        <time>1970-01-01T01:00:00Z</time>
      </trkpt>
      <trkpt lat="67.858739" lon="20.228874">
        <ele>592.091</ele>
        <time>1970-01-01T01:00:00Z</time>
      </trkpt>
      <trkpt lat="67.858688" lon="20.228661">
        <ele>591.636</ele>
        <time>1970-01-01T01:00:00Z</time>
      </trkpt>
      <trkpt lat="67.858602" lon="20.228566">
        <ele>591.182</ele>
        <time>1970-01-01T01:00:00Z</time>
      </trkpt>
      <trkpt lat="67.858535" lon="20.228375">
        <ele>590.727</ele>
        <time>1970-01-01T01:00:00Z</time>
      </trkpt>
      <trkpt lat="67.858467" lon="20.228224">
        <ele>590.182</ele>
        <time>1970-01-01T01:00:00Z</time>
      </trkpt>
      <trkpt lat="67.858393" lon="20.228108">
        <ele>589.545</ele>
        <time>1970-01-01T01:00:00Z</time>
      </trkpt>
      <trkpt lat="67.858356" lon="20.227907">
        <ele>589</ele>
        <time>1970-01-01T01:00:00Z</time>
      </trkpt>
      <trkpt lat="67.858322" lon="20.227712">
        <ele>588.455</ele>
        <time>1970-01-01T01:00:00Z</time>
      </trkpt>
      <trkpt lat="67.858247" lon="20.22763">
        <ele>587.909</ele>
        <time>1970-01-01T01:00:00Z</time>
      </trkpt>
      <trkpt lat="67.858181" lon="20.227468">
        <ele>587.364</ele>
        <time>1970-01-01T01:00:00Z</time>
      </trkpt>
      <trkpt lat="67.858097" lon="20.227371">
        <ele>586.727</ele>
        <time>1970-01-01T01:00:00Z</time>
      </trkpt>
      <trkpt lat="67.858017" lon="20.227307">
        <ele>586.091</ele>
        <time>1970-01-01T01:00:00Z</time>
      </trkpt>
      <trkpt lat="67.857933" lon="20.227254">
        <ele>585.545</ele>
        <time>1970-01-01T01:00:00Z</time>
      </trkpt>
      <trkpt lat="67.857844" lon="20.227275">
        <ele>585</ele>
        <time>1970-01-01T01:00:00Z</time>
      </trkpt>
      <trkpt lat="67.857749" lon="20.227325">
        <ele>584.455</ele>
        <time>1970-01-01T01:00:00Z</time>
      </trkpt>
      <trkpt lat="67.857674" lon="20.227167">
        <ele>584</ele>
        <time>1970-01-01T01:00:00Z</time>
      </trkpt>
      <trkpt lat="67.857599" lon="20.227038">
        <ele>583.545</ele>
        <time>1970-01-01T01:00:00Z</time>
      </trkpt>
      <trkpt lat="67.857513" lon="20.226949">
        <ele>583.091</ele>
        <time>1970-01-01T01:00:00Z</time>
      </trkpt>
      <trkpt lat="67.857419" lon="20.226921">
        <ele>582.727</ele>
        <time>1970-01-01T01:00:00Z</time>
      </trkpt>
      <trkpt lat="67.857335" lon="20.226918">
        <ele>582.273</ele>
        <time>1970-01-01T01:00:00Z</time>
      </trkpt>
      <trkpt lat="67.857249" lon="20.226905">
        <ele>581.818</ele>
        <time>1970-01-01T01:00:00Z</time>
      </trkpt>
      <trkpt lat="67.857158" lon="20.226869">
        <ele>581.364</ele>
        <time>1970-01-01T01:00:00Z</time>
      </trkpt>
      <trkpt lat="67.857068" lon="20.22684">
        <ele>581</ele>
        <time>1970-01-01T01:00:00Z</time>
      </trkpt>
      <trkpt lat="67.856983" lon="20.226803">
        <ele>580.636</ele>
        <time>1970-01-01T01:00:00Z</time>
      </trkpt>
      <trkpt lat="67.856889" lon="20.226767">
        <ele>580.273</ele>
        <time>1970-01-01T01:00:00Z</time>
      </trkpt>
      <trkpt lat="67.856798" lon="20.226747">
        <ele>579.909</ele>
        <time>1970-01-01T01:00:00Z</time>
      </trkpt>
      <trkpt lat="67.856721" lon="20.226633">
        <ele>579.545</ele>
        <time>1970-01-01T01:00:00Z</time>
      </trkpt>
      <trkpt lat="67.856633" lon="20.226649">
        <ele>579.182</ele>
        <time>1970-01-01T01:00:00Z</time>
      </trkpt>
      <trkpt lat="67.856546" lon="20.226637">
        <ele>578.818</ele>
        <time>1970-01-01T01:00:00Z</time>
      </trkpt>
      <trkpt lat="67.856456" lon="20.226556">
        <ele>578.364</ele>
        <time>1970-01-01T01:00:00Z</time>
      </trkpt>
      <trkpt lat="67.856364" lon="20.226463">
        <ele>578</ele>
        <time>1970-01-01T01:00:00Z</time>
      </trkpt>
      <trkpt lat="67.856289" lon="20.226379">
        <ele>577.8</ele>
        <time>1970-01-01T01:00:00Z</time>
      </trkpt>
      <trkpt lat="67.856205" lon="20.226374">
        <ele>577.667</ele>
        <time>1970-01-01T01:00:00Z</time>
      </trkpt>
      <trkpt lat="67.856143" lon="20.226236">
        <ele>577.5</ele>
        <time>1970-01-01T01:00:00Z</time>
      </trkpt>
      <trkpt lat="67.856054" lon="20.226202">
        <ele>577.286</ele>
        <time>1970-01-01T01:00:00Z</time>
      </trkpt>
      <trkpt lat="67.855969" lon="20.226143">
        <ele>577</ele>
        <time>1970-01-01T01:00:00Z</time>
      </trkpt>
    </trkseg>
  </trk>
</gpx>